TimeEDT,TemperatureF,Dew PointF,Humidity,Sea Level PressureIn,VisibilityMPH,Wind Direction,Wind SpeedMPH,Gust SpeedMPH,PrecipitationIn,Events,Conditions,WindDirDegrees,DateUTC
12:15 AM,44.6,42.8,93,30.15,7.0,SSE,3.5,-,N/A,,Clear,150,2013-10-28 04:15:00
12:35 AM,44.6,42.8,93,30.15,7.0,Calm,Calm,-,N/A,,Clear,0,2013-10-28 04:35:00
12:55 AM,44.6,42.8,93,30.15,7.0,Calm,Calm,-,N/A,,Clear,0,2013-10-28 04:55:00
1:15 AM,44.6,42.8,93,30.15,7.0,Calm,Calm,-,N/A,,Clear,0,2013-10-28 05:15:00
1:35 AM,44.6,42.8,93,30.15,5.0,Calm,Calm,-,N/A,,Clear,0,2013-10-28 05:35:00
1:55 AM,44.6,42.8,93,30.15,5.0,South,5.8,-,N/A,,Clear,170,2013-10-28 05:55:00
2:15 AM,44.6,42.8,93,30.15,5.0,South,3.5,-,N/A,,Clear,170,2013-10-28 06:15:00
2:35 AM,44.6,42.8,93,30.15,10.0,South,3.5,-,N/A,,Clear,180,2013-10-28 06:35:00
2:55 AM,44.6,42.8,93,30.15,5.0,South,3.5,-,N/A,,Clear,170,2013-10-28 06:55:00
3:15 AM,44.6,42.8,93,30.16,7.0,Calm,Calm,-,N/A,,Clear,0,2013-10-28 07:15:00
3:35 AM,44.6,42.8,93,30.15,5.0,Calm,Calm,-,N/A,,Clear,0,2013-10-28 07:35:00
3:55 AM,44.6,42.8,93,30.16,7.0,Calm,Calm,-,N/A,,Clear,0,2013-10-28 07:55:00
4:15 AM,44.6,42.8,93,30.15,7.0,South,3.5,-,N/A,,Clear,170,2013-10-28 08:15:00
4:35 AM,44.6,42.8,93,30.16,5.0,South,4.6,-,N/A,,Clear,190,2013-10-28 08:35:00
4:55 AM,44.6,42.8,93,30.16,5.0,South,3.5,-,N/A,,Clear,190,2013-10-28 08:55:00
5:15 AM,44.6,42.8,93,30.17,4.0,South,3.5,-,N/A,,Clear,170,2013-10-28 09:15:00
5:35 AM,44.6,42.8,93,30.17,7.0,South,3.5,-,N/A,,Clear,170,2013-10-28 09:35:00
5:55 AM,42.8,42.8,100,30.18,7.0,South,3.5,-,N/A,,Clear,190,2013-10-28 09:55:00
6:15 AM,44.6,42.8,93,30.19,7.0,Calm,Calm,-,N/A,,Clear,0,2013-10-28 10:15:00
6:35 AM,44.6,42.8,93,30.19,5.0,Calm,Calm,-,N/A,,Clear,0,2013-10-28 10:35:00
6:55 AM,42.8,42.8,100,30.20,5.0,Calm,Calm,-,N/A,,Clear,0,2013-10-28 10:55:00
7:15 AM,44.6,42.8,93,30.20,5.0,Calm,Calm,-,N/A,,Clear,0,2013-10-28 11:15:00
7:35 AM,44.6,42.8,93,30.20,4.0,Calm,Calm,-,N/A,,Clear,0,2013-10-28 11:35:00
7:55 AM,44.6,42.8,93,30.21,4.0,Calm,Calm,-,N/A,,Clear,0,2013-10-28 11:55:00
8:15 AM,44.6,42.8,93,30.22,3.0,Calm,Calm,-,N/A,,Clear,0,2013-10-28 12:15:00
8:35 AM,46.4,46.4,100,30.23,5.0,Calm,Calm,-,N/A,,Clear,0,2013-10-28 12:35:00
8:55 AM,48.2,48.2,100,30.24,5.0,Calm,Calm,-,N/A,,Clear,0,2013-10-28 12:55:00
9:15 AM,51.8,50.0,94,30.24,10.0,South,3.5,-,N/A,,Clear,170,2013-10-28 13:15:00
9:35 AM,53.6,51.8,94,30.25,10.0,Calm,Calm,-,N/A,,Clear,0,2013-10-28 13:35:00
9:55 AM,53.6,51.8,94,30.25,10.0,Calm,Calm,-,N/A,,Clear,0,2013-10-28 13:55:00
10:15 AM,55.4,51.8,88,30.25,10.0,SE,3.5,-,N/A,,Scattered Clouds,140,2013-10-28 14:15:00
10:35 AM,55.4,51.8,88,30.25,10.0,SSE,3.5,-,N/A,,Mostly Cloudy,150,2013-10-28 14:35:00
10:55 AM,57.2,50.0,77,30.25,10.0,SSE,3.5,-,N/A,,Mostly Cloudy,160,2013-10-28 14:55:00
11:15 AM,59.0,50.0,72,30.25,10.0,Calm,Calm,-,N/A,,Scattered Clouds,0,2013-10-28 15:15:00
11:35 AM,60.8,50.0,68,30.25,10.0,South,3.5,-,N/A,,Clear,190,2013-10-28 15:35:00
11:55 AM,60.8,51.8,72,30.25,10.0,SSE,3.5,-,N/A,,Clear,160,2013-10-28 15:55:00
12:15 PM,64.4,51.8,64,30.24,10.0,Calm,Calm,-,N/A,,Clear,0,2013-10-28 16:15:00
12:35 PM,64.4,51.8,64,30.24,10.0,SSE,3.5,-,N/A,,Clear,160,2013-10-28 16:35:00
12:55 PM,64.4,53.6,68,30.23,10.0,SE,5.8,-,N/A,,Clear,140,2013-10-28 16:55:00
1:15 PM,64.4,51.8,64,30.22,10.0,Calm,Calm,-,N/A,,Clear,0,2013-10-28 17:15:00
1:35 PM,66.2,53.6,64,30.21,10.0,SE,4.6,-,N/A,,Clear,140,2013-10-28 17:35:00
1:55 PM,68.0,53.6,60,30.21,10.0,SE,5.8,-,N/A,,Clear,140,2013-10-28 17:55:00
2:15 PM,66.2,53.6,64,30.20,10.0,ESE,3.5,-,N/A,,Clear,120,2013-10-28 18:15:00
2:35 PM,68.0,53.6,60,30.20,10.0,ESE,3.5,-,N/A,,Clear,110,2013-10-28 18:35:00
2:55 PM,68.0,55.4,64,30.19,10.0,Calm,Calm,-,N/A,,Clear,0,2013-10-28 18:55:00
3:15 PM,66.2,53.6,64,30.20,10.0,Calm,Calm,-,N/A,,Clear,0,2013-10-28 19:15:00
3:35 PM,66.2,53.6,64,30.20,10.0,Calm,Calm,-,N/A,,Clear,0,2013-10-28 19:35:00
3:55 PM,66.2,53.6,64,30.20,10.0,SW,4.6,-,N/A,,Clear,230,2013-10-28 19:55:00
4:15 PM,66.2,51.8,60,30.20,10.0,Calm,Calm,-,N/A,,Clear,0,2013-10-28 20:15:00
4:35 PM,66.2,51.8,60,30.21,10.0,West,3.5,-,N/A,,Clear,270,2013-10-28 20:35:00
4:55 PM,64.4,53.6,68,30.21,10.0,Calm,Calm,-,N/A,,Clear,0,2013-10-28 20:55:00
5:15 PM,64.4,53.6,68,30.21,10.0,West,3.5,-,N/A,,Clear,270,2013-10-28 21:15:00
5:35 PM,64.4,53.6,68,30.22,10.0,West,3.5,-,N/A,,Clear,270,2013-10-28 21:35:00
5:55 PM,64.4,53.6,68,30.22,10.0,WSW,3.5,-,N/A,,Clear,250,2013-10-28 21:55:00
6:15 PM,62.6,53.6,72,30.23,10.0,Calm,Calm,-,N/A,,Clear,0,2013-10-28 22:15:00
6:35 PM,59.0,53.6,82,30.23,10.0,West,3.5,-,N/A,,Clear,260,2013-10-28 22:35:00
6:55 PM,57.2,53.6,88,30.24,10.0,Calm,Calm,-,N/A,,Clear,0,2013-10-28 22:55:00
7:15 PM,55.4,51.8,88,30.25,10.0,Calm,Calm,-,N/A,,Clear,0,2013-10-28 23:15:00
7:35 PM,55.4,51.8,88,30.25,10.0,Calm,Calm,-,N/A,,Clear,0,2013-10-28 23:35:00
7:55 PM,55.4,51.8,88,30.25,10.0,Calm,Calm,-,N/A,,Clear,0,2013-10-28 23:55:00
8:15 PM,53.6,51.8,94,30.25,7.0,Calm,Calm,-,N/A,,Clear,0,2013-10-29 00:15:00
8:35 PM,53.6,51.8,94,30.25,7.0,Calm,Calm,-,N/A,,Clear,0,2013-10-29 00:35:00
8:55 PM,51.8,50.0,94,30.26,7.0,Calm,Calm,-,N/A,,Clear,0,2013-10-29 00:55:00
9:15 PM,51.8,50.0,94,30.26,5.0,Calm,Calm,-,N/A,,Clear,0,2013-10-29 01:15:00
9:35 PM,51.8,50.0,94,30.26,5.0,Calm,Calm,-,N/A,,Clear,0,2013-10-29 01:35:00
9:55 PM,51.8,48.2,88,30.26,5.0,Calm,Calm,-,N/A,,Clear,0,2013-10-29 01:55:00
10:15 PM,51.8,48.2,88,30.27,5.0,Calm,Calm,-,N/A,,Clear,0,2013-10-29 02:15:00
10:35 PM,50.0,48.2,94,30.27,5.0,Calm,Calm,-,N/A,,Clear,0,2013-10-29 02:35:00
10:55 PM,51.8,48.2,88,30.28,4.0,Calm,Calm,-,N/A,,Clear,0,2013-10-29 02:55:00
11:15 PM,51.8,48.2,88,30.28,3.0,Calm,Calm,-,N/A,,Clear,0,2013-10-29 03:15:00
11:35 PM,50.0,48.2,94,30.28,5.0,Calm,Calm,-,N/A,,Clear,0,2013-10-29 03:35:00
11:55 PM,51.8,48.2,88,30.27,4.0,Calm,Calm,-,N/A,,Scattered Clouds,0,2013-10-29 03:55:00